Location: Erdweis
(48.5167°N, 15.3500°E)
Time: 11:48:05
(UTC+00:00)

Ariane Rocket - Visible Passes

Search period start: 18 January 2021 00:00
Search period end: 28 January 2021 00:00
Orbit: 760 x 770 km, 98.7° (Epoch: 17 January)

Date Brightness Start Highest point End Pass type
(mag) Time Alt. Az. Time Alt. Az. Time Alt. Az.
18 Jan 4.8 17:44:38 16° NNE 17:44:38 16° NNE 17:45:53 10° N visible
18 Jan 5.5 19:24:49 13° NNW 19:24:49 13° NNW 19:25:27 10° NNW visible
19 Jan 5.0 17:07:15 12° NNE 17:07:15 12° NNE 17:07:56 10° NNE visible
19 Jan 5.0 18:47:26 18° N 18:47:26 18° N 18:48:42 10° NNW visible
20 Jan 4.7 18:10:03 19° N 18:10:03 19° N 18:11:39 10° N visible
20 Jan 5.8 19:50:14 12° NW 19:50:14 12° NW 19:50:33 10° NNW visible
21 Jan 4.7 17:32:39 16° NNE 17:32:39 16° NNE 17:34:12 10° NNE visible
21 Jan 5.2 19:12:50 18° NNW 19:12:50 18° NNW 19:14:05 10° NNW visible
22 Jan 5.0 16:55:16 11° NE 16:55:16 11° NE 16:55:40 10° NE visible
22 Jan 4.7 18:35:27 22° N 18:35:27 22° N 18:37:15 10° N visible
23 Jan 4.5 17:58:03 21° NNE 17:58:03 21° NNE 18:00:05 10° N visible
23 Jan 5.5 19:38:14 16° NNW 19:38:14 16° NNW 19:39:18 10° NNW visible
24 Jan 4.7 17:20:39 15° NE 17:20:39 15° NE 17:22:27 10° NNE visible
24 Jan 4.8 19:00:51 23° NNW 19:00:51 23° NNW 19:02:41 10° NNW visible
25 Jan 4.4 18:23:27 26° N 18:23:27 26° N 18:25:45 10° N visible
25 Jan 5.8 20:03:38 13° NW 20:03:38 13° NW 20:04:16 10° NW visible
26 Jan 4.4 17:46:02 21° NNE 17:46:02 21° NNE 17:48:27 10° N visible
26 Jan 5.1 19:26:13 21° NNW 19:26:13 21° NNW 19:27:59 10° NNW visible
27 Jan 4.7 17:08:38 14° NE 17:08:38 14° NE 17:10:34 10° NNE visible
27 Jan 4.4 18:48:49 29° N 18:48:49 29° N 18:51:16 10° NNW visible
